TimeCDT,TemperatureF,Dew PointF,Humidity,Sea Level PressureIn,VisibilityMPH,Wind Direction,Wind SpeedMPH,Gust SpeedMPH,PrecipitationIn,Events,Conditions,WindDirDegrees,DateUTC
12:15 AM,51.8,41.0,67,30.27,10.0,ENE,6.9,-,N/A,,Partly Cloudy,70,2013-05-24 05:15:00
12:35 AM,51.8,41.0,67,30.27,10.0,East,5.8,-,N/A,,Clear,80,2013-05-24 05:35:00
12:55 AM,51.8,41.0,67,30.28,10.0,East,9.2,-,N/A,,Clear,90,2013-05-24 05:55:00
1:15 AM,50.0,41.0,71,30.28,10.0,East,6.9,-,N/A,,Clear,90,2013-05-24 06:15:00
1:35 AM,50.0,39.2,66,30.28,10.0,East,8.1,-,N/A,,Clear,90,2013-05-24 06:35:00
1:55 AM,50.0,41.0,71,30.28,10.0,East,4.6,-,N/A,,Partly Cloudy,100,2013-05-24 06:55:00
2:15 AM,48.2,41.0,76,30.28,10.0,East,6.9,-,N/A,,Clear,100,2013-05-24 07:15:00
2:35 AM,48.2,41.0,76,30.28,10.0,East,8.1,-,N/A,,Clear,90,2013-05-24 07:35:00
2:55 AM,48.2,41.0,76,30.28,10.0,East,9.2,-,N/A,,Clear,90,2013-05-24 07:55:00
3:15 AM,48.2,41.0,76,30.28,10.0,East,6.9,-,N/A,,Partly Cloudy,100,2013-05-24 08:15:00
3:35 AM,48.2,41.0,76,30.28,10.0,ESE,6.9,-,N/A,,Partly Cloudy,120,2013-05-24 08:35:00
3:55 AM,48.2,41.0,76,30.28,10.0,ESE,6.9,-,N/A,,Partly Cloudy,120,2013-05-24 08:55:00
4:15 AM,48.2,41.0,76,30.27,10.0,ESE,8.1,-,N/A,,Clear,110,2013-05-24 09:15:00
4:35 AM,48.2,41.0,76,30.27,10.0,ESE,8.1,-,N/A,,Clear,120,2013-05-24 09:35:00
4:55 AM,48.2,41.0,76,30.27,10.0,ESE,9.2,-,N/A,,Clear,120,2013-05-24 09:55:00
5:15 AM,48.2,41.0,76,30.27,10.0,ESE,9.2,-,N/A,,Clear,120,2013-05-24 10:15:00
5:35 AM,48.2,41.0,76,30.29,10.0,ESE,8.1,-,N/A,,Clear,120,2013-05-24 10:35:00
5:55 AM,48.2,41.0,76,30.28,10.0,ESE,11.5,-,N/A,,Clear,110,2013-05-24 10:55:00
6:15 AM,48.2,41.0,76,30.30,10.0,ESE,9.2,15.0,N/A,,Clear,120,2013-05-24 11:15:00
6:35 AM,48.2,41.0,76,30.30,10.0,ESE,9.2,15.0,N/A,,Clear,120,2013-05-24 11:35:00
6:55 AM,50.0,41.0,71,30.30,10.0,SE,9.2,-,N/A,,Clear,130,2013-05-24 11:55:00
7:15 AM,51.8,41.0,67,30.31,10.0,SE,11.5,-,N/A,,Clear,140,2013-05-24 12:15:00
7:35 AM,53.6,42.8,67,30.31,10.0,SE,9.2,16.1,N/A,,Clear,130,2013-05-24 12:35:00
7:55 AM,55.4,42.8,63,30.31,10.0,SE,11.5,17.3,N/A,,Clear,140,2013-05-24 12:55:00
8:15 AM,55.4,44.6,67,30.31,10.0,SE,11.5,18.4,N/A,,Clear,140,2013-05-24 13:15:00
8:35 AM,57.2,44.6,63,30.30,10.0,SE,11.5,20.7,N/A,,Clear,140,2013-05-24 13:35:00
8:55 AM,60.8,44.6,55,30.31,10.0,SSE,13.8,-,N/A,,Clear,160,2013-05-24 13:55:00
9:15 AM,60.8,44.6,55,30.31,10.0,South,16.1,23.0,N/A,,Clear,170,2013-05-24 14:15:00
9:35 AM,62.6,44.6,52,30.30,10.0,South,17.3,-,N/A,,Clear,170,2013-05-24 14:35:00
9:55 AM,64.4,46.4,52,30.29,10.0,SSE,11.5,21.9,N/A,,Clear,160,2013-05-24 14:55:00
10:15 AM,64.4,42.8,45,30.28,10.0,SSE,17.3,25.3,N/A,,Clear,160,2013-05-24 15:15:00
10:35 AM,64.4,44.6,49,30.28,10.0,South,11.5,24.2,N/A,,Clear,180,2013-05-24 15:35:00
10:55 AM,66.2,44.6,46,30.27,10.0,South,16.1,24.2,N/A,,Clear,170,2013-05-24 15:55:00
11:15 AM,66.2,44.6,46,30.26,10.0,South,16.1,26.5,N/A,,Clear,170,2013-05-24 16:15:00
11:35 AM,68.0,44.6,43,30.25,10.0,SSE,18.4,25.3,N/A,,Clear,160,2013-05-24 16:35:00
11:55 AM,68.0,44.6,43,30.25,10.0,SSE,13.8,21.9,N/A,,Clear,150,2013-05-24 16:55:00
12:15 PM,69.8,46.4,43,30.23,10.0,SSE,18.4,27.6,N/A,,Clear,160,2013-05-24 17:15:00
12:35 PM,69.8,46.4,43,30.23,10.0,SSE,19.6,-,N/A,,Partly Cloudy,150,2013-05-24 17:35:00
12:55 PM,69.8,48.2,46,30.23,10.0,SSE,17.3,26.5,N/A,,Partly Cloudy,150,2013-05-24 17:55:00
1:15 PM,69.8,48.2,46,30.23,10.0,SSE,13.8,24.2,N/A,,Scattered Clouds,160,2013-05-24 18:15:00
1:35 PM,69.8,48.2,46,30.22,10.0,South,16.1,27.6,N/A,,Scattered Clouds,180,2013-05-24 18:35:00
1:55 PM,71.6,46.4,41,30.21,10.0,South,18.4,27.6,N/A,,Clear,180,2013-05-24 18:55:00
2:15 PM,71.6,48.2,43,30.21,10.0,South,21.9,28.8,N/A,,Clear,170,2013-05-24 19:15:00
2:35 PM,73.4,48.2,41,30.20,10.0,South,17.3,27.6,N/A,,Mostly Cloudy,170,2013-05-24 19:35:00
2:55 PM,71.6,48.2,43,30.20,10.0,South,16.1,31.1,N/A,,Mostly Cloudy,180,2013-05-24 19:55:00
3:35 PM,71.6,48.2,43,30.18,10.0,South,13.8,26.5,N/A,,Mostly Cloudy,190,2013-05-24 20:35:00
3:55 PM,69.8,48.2,46,30.17,10.0,South,17.3,27.6,N/A,,Mostly Cloudy,180,2013-05-24 20:55:00
4:15 PM,69.8,48.2,46,30.16,10.0,South,18.4,26.5,N/A,,Overcast,170,2013-05-24 21:15:00
4:35 PM,69.8,46.4,43,30.15,10.0,South,20.7,26.5,N/A,,Mostly Cloudy,180,2013-05-24 21:35:00
4:55 PM,69.8,46.4,43,30.12,10.0,SSE,21.9,32.2,N/A,,Scattered Clouds,160,2013-05-24 21:55:00
5:15 PM,68.0,46.4,46,30.13,-9999.0,SSE,15.0,20.7,N/A,,Scattered Clouds,160,2013-05-24 22:15:00
5:35 PM,68.0,48.2,49,30.12,10.0,SSE,11.5,21.9,N/A,,Partly Cloudy,160,2013-05-24 22:35:00
5:55 PM,69.8,50.0,49,30.11,10.0,SSE,16.1,-,N/A,,Clear,150,2013-05-24 22:55:00
6:15 PM,68.0,50.0,52,30.10,10.0,SE,13.8,20.7,N/A,,Clear,140,2013-05-24 23:15:00
6:35 PM,68.0,50.0,52,30.09,10.0,SSE,13.8,24.2,N/A,,Clear,150,2013-05-24 23:35:00
6:55 PM,68.0,50.0,52,30.09,10.0,SSE,11.5,20.7,N/A,,Clear,150,2013-05-24 23:55:00
7:15 PM,68.0,48.2,49,30.09,10.0,SE,16.1,-,N/A,,Clear,140,2013-05-25 00:15:00
7:35 PM,66.2,48.2,52,30.08,10.0,SE,11.5,21.9,N/A,,Clear,140,2013-05-25 00:35:00
7:55 PM,66.2,48.2,52,30.10,10.0,SE,11.5,-,N/A,,Clear,140,2013-05-25 00:55:00
8:15 PM,64.4,48.2,56,30.12,10.0,ESE,5.8,-,N/A,,Clear,120,2013-05-25 01:15:00
8:35 PM,62.6,50.0,63,30.12,10.0,ESE,6.9,-,N/A,,Clear,110,2013-05-25 01:35:00
8:55 PM,62.6,50.0,63,30.12,10.0,East,11.5,-,N/A,,Clear,100,2013-05-25 01:55:00
9:15 PM,62.6,50.0,63,30.13,10.0,ESE,12.7,-,N/A,,Mostly Cloudy,110,2013-05-25 02:15:00
9:35 PM,60.8,50.0,68,30.14,10.0,ESE,6.9,13.8,N/A,,Overcast,120,2013-05-25 02:35:00
9:55 PM,62.6,50.0,63,30.16,10.0,ESE,8.1,15.0,N/A,,Overcast,120,2013-05-25 02:55:00
10:15 PM,62.6,50.0,63,30.19,10.0,SE,8.1,-,N/A,,Overcast,140,2013-05-25 03:15:00
10:35 PM,60.8,50.0,68,30.19,10.0,ESE,10.4,-,N/A,,Overcast,120,2013-05-25 03:35:00
10:55 PM,60.8,50.0,68,30.18,10.0,SE,12.7,-,N/A,,Overcast,130,2013-05-25 03:55:00
11:15 PM,60.8,50.0,68,30.17,10.0,SE,12.7,18.4,N/A,,Overcast,130,2013-05-25 04:15:00
11:35 PM,59.0,50.0,72,30.16,10.0,SE,12.7,-,N/A,,Overcast,130,2013-05-25 04:35:00
11:55 PM,59.0,48.2,67,30.15,10.0,SE,12.7,19.6,N/A,,Overcast,130,2013-05-25 04:55:00